This is the latest recevied weather packets stored in our database for station/object OE7AOT-2. If no packets are shown the sender has not sent any weather packets the latest 10 day(s).
| Time | Temp. | Humidity | Pressure | Rain* | Wind** | Luminosity | Snow |
|---|---|---|---|---|---|---|---|
| 1778329121 | 38.89° C | 44% | 924.8 hPa | 0 mm | - | - | - |
| 1778329052 | 41.67° C | 42% | 924.6 hPa | 0 mm | - | - | - |
| 1778328984 | 43.89° C | 40% | 924.7 hPa | 0 mm | - | - | - |
| 1778328915 | 43.33° C | 41% | 924.8 hPa | 0 mm | - | - | - |
| 1778328847 | 43.89° C | 41% | 924.8 hPa | 0 mm | - | - | - |
| 1778328779 | 45° C | 40% | 924.8 hPa | 0 mm | - | - | - |
| 1778328710 | 47.22° C | 39% | 924.8 hPa | 0 mm | - | - | - |
| 1778328642 | 46.11° C | 40% | 924.8 hPa | 0 mm | - | - | - |
| 1778328573 | 44.44° C | 42% | 924.8 hPa | 0 mm | - | - | - |
| 1778328505 | 43.33° C | 42% | 924.9 hPa | 0 mm | - | - | - |
| 1778328436 | 41.67° C | 44% | 924.8 hPa | 0 mm | - | - | - |
| 1778328368 | 39.44° C | 46% | 925 hPa | 0 mm | - | - | - |
| 1778328300 | 40.56° C | 46% | 924.9 hPa | 0 mm | - | - | - |
| 1778328231 | 40.56° C | 45% | 925 hPa | 0 mm | - | - | - |
| 1778328163 | 38.33° C | 45% | 925.1 hPa | 0 mm | - | - | - |
| 1778328094 | 37.78° C | 46% | 925 hPa | 0 mm | - | - | - |
| 1778328026 | 40° C | 44% | 924.9 hPa | 0 mm | - | - | - |
| 1778327957 | 42.22° C | 42% | 925 hPa | 0 mm | - | - | - |
| 1778327889 | 45.56° C | 40% | 925 hPa | 0 mm | - | - | - |
| 1778327820 | 46.11° C | 40% | 925 hPa | 0 mm | - | - | - |
| 1778327752 | 45° C | 40% | 925 hPa | 0 mm | - | - | - |
| 1778327683 | 44.44° C | 41% | 925 hPa | 0 mm | - | - | - |
| 1778327615 | 43.89° C | 42% | 925 hPa | 0 mm | - | - | - |
| 1778327547 | 45.56° C | 41% | 924.9 hPa | 0 mm | - | - | - |
| 1778327479 | 45.56° C | 41% | 925.1 hPa | 0 mm | - | - | - |
* Rain latest hour (hover to see other rain measurements)
** Current wind speed in m/s (hover to see current wind gust speed)